Location: Bucquoy
(50.1391°N, 2.7097°E)
Time: 23:51:24
(UTC+00:00)

Helios 1B rocket - Pass Details

Date: 06 May 2021
Orbit: 573 x 583 km, 98.2° (Epoch: 21 June)

Event Time Altitude Azimuth Distance (km) Brightness Sun altitude
Rises 02:15:38 0° 8° (N) 2,820 7.0 -15.6°
Reaches altitude 10° 02:17:53 10° 1° (N) 1,916 5.9 -15.4°
Maximum altitude 02:21:45 39° 292° (WNW) 882 3.2 -15.0°
Enters shadow 02:23:41 24° 240° (WSW) 1,224 3.5 -14.8°
